Date String (YYYY-MM-DD hh:mm:ss) UTC,Instrument flags,absolute air pressure of the measurement (hPa),sample flow rate (lpm),inlet stack bypass flow (lpm),air temperature of the measurement (°C),ambient temperature measured by the external sensor (°C),aerosol sample conditioner tube jacket temperature (°C),OPC LED temperature (°C),internal box temperature (°C),relative humidity of the measurement (%),span deviation,mass concentration of particles derived from Lorenz-Mie calculation of OPC scattering (μg/m³),mass concentration of particles derived from Lorenz-Mie calculation of OPC scattering (μg/m³),mass concentration of particles derived from Lorenz-Mie calculation of OPC scattering (μg/m³)
DateTimeUTC,F1_M11,P_M11,Q1_M11,Q2_M11,T1_M11,T2_M11,T3_M11,T4_M11,T5_M11,U1_M11,ZSPAN_M11,X0_M11,X2_M11,X1_M11
2023-11-11 10:00:00,SystemResetWarning,0830.6,5.00,000.00,022.5,021.5,000.0,030.9,023.9,7.0,0000.0,0006.92,0002.99,0002.17
2023-11-11 10:01:00,SystemResetWarning,0830.6,5.02,000.00,022.5,021.5,000.0,030.9,023.9,6.8,0000.0,0006.97,0003.03,0002.19
2023-11-11 10:02:00,SystemResetWarning,0830.6,5.00,000.00,022.5,021.5,000.0,030.9,023.9,6.9,0000.0,0007.30,0003.08,0002.20
2023-11-11 10:03:00,SystemResetWarning,0830.6,5.00,000.00,022.5,021.5,000.0,030.9,023.9,7.0,0000.0,0007.92,0003.09,0002.20
2023-11-11 10:04:00,SystemResetWarning,0830.6,5.00,000.00,022.5,021.5,000.0,030.9,023.9,7.0,0000.0,0007.90,0003.08,0002.20
2023-11-11 10:05:00,SystemResetWarning,0830.6,5.00,000.00,022.5,021.5,000.0,030.9,023.9,6.9,0000.0,0007.41,0003.10,0002.21
2023-11-11 10:06:00,SystemResetWarning,0830.6,5.00,000.00,022.5,021.5,000.0,030.9,023.9,6.9,0000.0,0007.04,0003.12,0002.25
2023-11-11 10:07:00,SystemResetWarning,0830.5,5.00,000.00,022.5,021.4,000.0,030.9,023.9,6.9,0000.0,0007.17,0003.16,0002.27
2023-11-11 10:08:00,SystemResetWarning,0830.6,5.00,000.00,022.5,021.4,000.0,030.9,023.8,6.8,0000.0,0007.15,0003.19,0002.29
2023-11-11 10:09:00,SystemResetWarning,0830.7,5.01,000.00,022.5,021.4,000.0,030.9,023.8,6.8,0000.0,0007.34,0003.22,0002.29
2023-11-11 10:10:00,SystemResetWarning,0830.7,5.00,000.00,022.5,021.4,000.0,030.9,023.8,6.9,0000.0,0007.05,0003.20,0002.30
2023-11-11 10:11:00,SystemResetWarning,0830.6,5.00,000.00,022.5,021.4,000.0,030.9,023.8,7.0,0000.0,0007.55,0003.20,0002.31
2023-11-11 10:12:00,SystemResetWarning,0830.6,5.01,000.00,022.5,021.4,000.0,030.9,023.9,7.0,0000.0,0008.29,0003.20,0002.31
2023-11-11 10:13:00,SystemResetWarning,0830.6,5.00,000.00,022.5,021.4,000.0,030.9,023.9,7.1,0000.0,0008.32,0003.19,0002.30
2023-11-11 10:14:00,SystemResetWarning,0830.6,5.00,000.00,022.5,021.4,000.0,030.9,023.9,7.2,0000.0,0007.56,0003.17,0002.28
2023-11-11 10:15:00,SystemResetWarning,0830.6,5.00,000.00,022.5,021.4,000.0,030.9,023.9,7.2,0000.0,0007.51,0003.17,0002.28
2023-11-11 10:16:00,SystemResetWarning,0830.6,4.99,000.00,022.5,021.4,000.0,030.9,023.9,7.3,0000.0,0007.49,0003.17,0002.28
2023-11-11 10:17:00,SystemResetWarning,0830.6,5.00,000.00,022.5,021.4,000.0,030.9,023.9,7.3,0000.0,0007.43,0003.17,0002.28
2023-11-11 10:18:00,SystemResetWarning,0830.6,5.00,000.00,022.5,021.4,000.0,030.9,023.9,7.3,0000.0,0007.39,0003.15,0002.27
2023-11-11 10:19:00,SystemResetWarning,0830.5,5.01,000.00,022.4,021.4,000.0,030.8,023.9,7.4,0000.0,0007.30,0003.12,0002.25
2023-11-11 10:20:00,SystemResetWarning,0830.5,5.00,000.00,022.4,021.3,000.0,030.8,023.9,7.3,0000.0,0007.78,0003.12,0002.25
2023-11-11 10:21:00,SystemResetWarning,0830.6,5.01,000.00,022.4,021.3,000.0,030.8,023.8,7.4,0000.0,0007.84,0003.12,0002.25
2023-11-11 10:22:00,SystemResetWarning,0830.5,5.00,000.00,022.4,021.3,000.0,030.8,023.8,7.4,0000.0,0007.59,0003.12,0002.25
2023-11-11 10:23:00,SystemResetWarning,0830.6,4.99,000.00,022.4,021.2,000.0,030.8,023.9,7.4,0000.0,0006.51,0003.11,0002.25
2023-11-11 10:24:00,SystemResetWarning,0830.6,5.00,000.00,022.4,021.2,000.0,030.8,023.8,7.4,0000.0,0006.08,0003.09,0002.26
2023-11-11 10:25:00,SystemResetWarning,0830.6,5.01,000.00,022.4,021.2,000.0,030.8,023.8,7.5,0000.0,0006.13,0003.10,0002.28
2023-11-11 10:26:00,SystemResetWarning,0830.5,5.00,000.00,022.3,021.1,000.0,030.8,023.8,7.4,0000.0,0006.48,0003.12,0002.29
2023-11-11 10:27:00,SystemResetWarning,0830.6,5.00,000.00,022.3,021.1,000.0,030.8,023.7,7.5,0000.0,0006.63,0003.13,0002.29
2023-11-11 10:28:00,SystemResetWarning,0830.6,4.99,000.00,022.3,021.1,000.0,030.8,023.7,7.4,0000.0,0006.72,0003.16,0002.29
2023-11-11 10:29:00,SystemResetWarning,0830.5,4.99,000.00,022.3,021.1,000.0,030.8,023.7,7.3,0000.0,0006.70,0003.16,0002.29
2023-11-11 10:30:00,SystemResetWarning,0830.5,5.00,000.00,022.3,021.1,000.0,030.7,023.7,7.3,0000.0,0006.75,0003.15,0002.30
2023-11-11 10:31:00,SystemResetWarning,0830.7,5.00,000.00,022.3,021.1,000.0,030.7,023.7,7.4,0000.0,0005.96,0003.15,0002.33
2023-11-11 10:32:00,SystemResetWarning,0830.7,5.00,000.00,022.3,021.1,000.0,030.7,023.6,7.4,0000.0,0005.44,0003.13,0002.32
2023-11-11 10:33:00,SystemResetWarning,0830.7,5.00,000.00,022.2,021.0,000.0,030.7,023.6,7.4,0000.0,0005.36,0003.12,0002.33
2023-11-11 10:34:00,SystemResetWarning,0830.4,5.01,000.00,022.2,021.0,000.0,030.7,023.6,7.3,0000.0,0005.45,0003.16,0002.35
2023-11-11 10:35:00,SystemResetWarning,0830.4,5.00,000.00,022.2,021.0,000.0,030.7,023.6,7.3,0000.0,0005.48,0003.19,0002.35
2023-11-11 10:36:00,SystemResetWarning,0830.4,4.99,000.00,022.2,021.0,000.0,030.7,023.6,7.4,0000.0,0005.62,0003.22,0002.35
2023-11-11 10:37:00,SystemResetWarning,0830.4,5.00,000.00,022.2,021.0,000.0,030.7,023.6,7.5,0000.0,0005.74,0003.22,0002.36
2023-11-11 10:38:00,SystemResetWarning,0830.4,5.01,000.00,022.1,021.0,000.0,030.6,023.6,7.4,0000.0,0006.01,0003.22,0002.38
2023-11-11 10:39:00,SystemResetWarning,0830.4,5.01,000.00,022.1,021.0,000.0,030.6,023.6,7.4,0000.0,0005.89,0003.21,0002.38
2023-11-11 10:40:00,SystemResetWarning,0830.3,5.01,000.00,022.1,020.9,000.0,030.6,023.6,7.4,0000.0,0005.96,0003.21,0002.37
2023-11-11 10:41:00,SystemResetWarning,0830.3,5.00,000.00,022.1,021.0,000.0,030.6,023.5,7.4,0000.0,0005.93,0003.21,0002.37
2023-11-11 10:42:00,SystemResetWarning,0830.3,4.99,000.00,022.1,021.0,000.0,030.6,023.5,7.4,0000.0,0005.83,0003.20,0002.36
2023-11-11 10:43:00,SystemResetWarning,0830.3,4.99,000.00,022.1,020.9,000.0,030.6,023.5,7.5,0000.0,0005.97,0003.23,0002.38
2023-11-11 10:44:00,SystemResetWarning,0830.3,5.00,000.00,022.0,020.9,000.0,030.6,023.5,7.5,0000.0,0006.06,0003.24,0002.39
2023-11-11 10:45:00,SystemResetWarning,0830.3,5.00,000.00,022.0,020.9,000.0,030.6,023.4,7.5,0000.0,0006.35,0003.27,0002.39
2023-11-11 10:46:00,SystemResetWarning,0830.3,5.00,000.00,022.0,020.8,000.0,030.5,023.4,7.5,0000.0,0006.61,0003.28,0002.41
2023-11-11 10:47:00,SystemResetWarning,0830.3,5.00,000.00,022.0,020.8,000.0,030.5,023.4,7.5,0000.0,0006.65,0003.26,0002.42
2023-11-11 10:48:00,SystemResetWarning,0830.2,5.00,000.00,022.0,020.8,000.0,030.5,023.4,7.4,0000.0,0006.18,0003.21,0002.41
2023-11-11 10:49:00,SystemResetWarning,0830.3,5.00,000.00,022.0,020.8,000.0,030.5,023.3,7.3,0000.0,0005.80,0003.20,0002.40
2023-11-11 10:50:00,SystemResetWarning,0830.3,5.01,000.00,021.9,020.8,000.0,030.5,023.2,7.4,0000.0,0005.86,0003.21,0002.40
2023-11-11 10:51:00,SystemResetWarning,0830.3,5.00,000.00,021.9,020.8,000.0,030.4,023.2,7.3,0000.0,0005.97,0003.25,0002.41
2023-11-11 10:52:00,SystemResetWarning,0830.2,4.99,000.00,021.9,020.8,000.0,030.4,023.2,7.3,0000.0,0006.27,0003.30,0002.44
2023-11-11 10:53:00,SystemResetWarning,0830.3,4.99,000.00,021.9,020.7,000.0,030.4,023.2,7.3,0000.0,0006.21,0003.30,0002.45
2023-11-11 10:54:00,SystemResetWarning,0830.3,4.99,000.00,021.9,020.7,000.0,030.4,023.2,7.2,0000.0,0006.30,0003.31,0002.45
2023-11-11 10:55:00,SystemResetWarning,0830.4,5.01,000.00,021.8,020.7,000.0,030.4,023.2,7.2,0000.0,0006.47,0003.35,0002.46
2023-11-11 10:56:00,SystemResetWarning,0830.4,5.00,000.00,021.8,020.7,000.0,030.3,023.2,7.3,0000.0,0006.35,0003.35,0002.47
2023-11-11 10:57:00,SystemResetWarning,0830.3,5.01,000.00,021.8,020.7,000.0,030.3,023.1,7.4,0000.0,0006.08,0003.33,0002.47
2023-11-11 10:58:00,SystemResetWarning,0830.3,5.01,000.00,021.8,020.7,000.0,030.3,023.1,7.6,0000.0,0006.06,0003.35,0002.49
2023-11-11 10:59:00,SystemResetWarning,0830.3,5.01,000.00,021.8,020.7,000.0,030.3,023.1,7.6,0000.0,0006.20,0003.39,0002.51
